Wind_Speed
11 11 10 10 10 10 10 9 8 8 8 9 9 9 9 9 10 11 11 11 11 11 12 11 12 12 12 11 11 11 10 10 10 10 9 8 8 7 6 6 6 6 6
11 11 10 10 10 10 10 9 9 9 9 9 9 10 10 10 11 11 11 10 11 11 11 12 13 12 12 11 11 10 10 10 9 9 9 8 7 7 6 6 6 6 5
11 11 10 10 10 10 10 9 9 9 9 9 9 9 10 11 11 11 10 10 11 11 11 12 13 12 12 12 11 11 10 10 9 9 8 8 8 7 7 7 6 5 5
12 11 11 10 10 10 10 10 10 10 10 10 9 9 10 10 10 10 10 10 11 11 12 12 11 11 11 11 11 11 10 10 9 8 8 8 7 7 7 7 6 5 5
12 11 11 10 10 10 10 10 10 10 10 10 10 9 10 10 10 10 10 11 11 12 12 12 12 11 11 11 11 10 9 9 9 8 7 7 7 6 6 6 6 6 5
12 12 11 11 11 10 10 10 10 10 9 9 9 9 9 10 10 10 10 11 11 11 11 12 12 12 11 10 10 9 9 9 8 7 7 6 7 6 6 6 6 5 5
12 12 12 11 11 11 10 11 10 10 9 9 9 10 10 9 10 10 10 10 10 10 11 11 11 11 11 10 10 9 8 8 7 7 6 6 6 5 6 6 5 5 4
13 13 13 12 12 12 11 11 11 11 10 11 10 10 10 10 11 10 10 10 10 10 11 11 11 11 11 10 9 8 8 7 6 6 5 6 6 6 5 5 4 4 4
13 14 13 13 13 13 12 11 11 12 12 12 11 11 11 11 11 11 10 10 10 11 11 11 10 10 9 9 9 8 8 7 7 7 6 6 5 5 5 5 4 3 3
13 13 13 14 13 14 13 12 12 11 12 12 12 12 11 11 11 10 10 10 10 11 11 11 10 9 9 8 8 7 7 6 7 6 5 5 4 4 5 4 3 2 3
13 13 13 13 13 13 13 13 12 11 12 12 12 12 12 11 10 10 9 9 9 9 9 9 9 8 7 7 6 6 5 5 5 5 4 4 4 4 4 3 2 2 1
13 13 13 13 13 12 12 12 12 11 11 11 11 11 11 10 10 9 8 8 8 7 8 7 7 6 6 6 5 4 4 4 4 4 3 3 3 3 2 2 2 1 1
13 13 13 13 13 13 13 12 11 11 11 10 10 9 9 9 8 8 8 7 7 6 6 6 5 5 4 4 4 4 3 3 3 3 2 2 2 2 2 2 2 2 2
14 14 14 14 13 13 12 11 11 11 10 9 8 8 8 8 7 6 6 6 6 5 5 4 4 3 3 3 3 3 3 3 2 2 2 2 3 3 2 3 2 2 2
13 13 13 13 13 13 12 12 11 10 10 10 8 8 7 7 7 7 6 6 6 5 4 3 2 2 2 2 1 1 2 2 2 2 2 3 3 4 4 4 4 4 4
13 12 11 12 12 12 11 11 10 10 9 8 8 8 7 7 6 6 6 6 6 5 4 3 2 1 1 1 1 2 1 2 3 4 5 5 5 6 6 6 6 5 5
12 12 11 11 11 11 10 9 8 8 8 8 7 7 7 7 6 5 5 5 5 4 3 3 2 1 0 1 2 2 2 3 4 5 6 7 7 7 8 7 7 7 8
12 11 11 10 10 10 9 8 8 7 7 7 7 7 7 7 6 5 4 3 3 3 3 2 2 2 2 2 2 3 3 4 5 6 7 8 8 8 8 8 9 9 9
12 11 11 10 10 9 9 8 7 7 6 6 6 6 6 5 4 4 3 3 2 2 2 3 3 3 3 3 3 4 5 6 6 7 7 8 9 9 9 9 10 10 10
12 11 10 10 10 10 9 8 7 7 6 5 5 4 5 4 4 3 3 2 2 2 3 3 3 3 4 4 5 5 6 7 7 7 8 8 9 10 10 10 11 11 12
11 11 11 10 11 10 9 9 7 6 6 5 4 4 3 3 4 3 3 2 2 3 3 4 4 4 5 5 6 6 6 7 7 7 8 8 8 9 10 10 11 12 12
10 10 10 10 10 10 10 9 8 7 6 5 5 4 3 3 3 3 3 3 3 4 4 5 5 5 6 6 6 6 6 7 7 7 7 8 9 10 10 10 12 12 12
10 10 10 9 9 9 9 9 9 8 7 6 5 5 3 3 4 3 3 4 4 5 5 5 6 6 6 6 6 7 7 8 7 8 8 8 8 10 10 10 11 12 12
9 9 9 9 9 8 8 8 8 8 7 7 6 5 4 4 3 3 4 4 4 5 5 6 6 6 6 7 7 7 7 8 8 8 8 8 9 10 10 10 10 11 11
9 9 8 8 8 8 7 7 7 7 7 6 6 5 5 4 4 4 4 5 5 5 6 7 7 7 7 7 6 6 7 7 8 8 9 10 11 11 11 11 10 11 11
8 8 7 7 7 7 7 6 6 6 6 6 6 5 5 5 5 5 5 5 5 6 6 7 7 7 7 7 7 7 7 7 8 8 9 10 10 11 11 11 11 11 11
Wind_Direction
67 74 81 81 82 83 82 88 90 93 91 98 107 109 111 118 124 128 126 126 127 127 132 135 140 142 140 138 136 137 138 137 134 132 132 131 130 127 123 124 128 127 121
72 78 78 80 79 82 84 87 89 92 95 102 109 108 113 117 121 122 128 127 125 124 126 130 135 139 137 135 135 138 139 138 133 130 130 129 128 122 118 123 125 122 115
75 78 78 80 81 82 83 88 91 94 99 107 113 114 116 118 121 121 124 128 127 126 127 130 135 135 133 133 134 136 139 138 135 132 132 129 126 123 121 123 123 123 117
77 81 83 83 84 85 87 90 94 101 105 107 109 115 117 118 118 118 121 125 126 129 130 128 131 133 130 128 131 134 137 141 138 135 134 132 131 131 127 125 123 123 115
77 80 83 83 85 85 87 91 97 104 104 104 106 112 118 121 121 120 124 124 125 128 129 130 132 131 132 130 130 132 136 137 136 136 136 135 137 137 129 123 119 115 113
73 77 83 83 86 89 91 93 96 102 104 108 110 112 116 118 121 120 120 122 122 127 130 133 132 132 133 130 129 131 133 134 133 131 128 133 137 130 126 120 112 110 112
68 74 81 83 84 87 91 93 91 96 101 106 110 111 110 115 123 121 117 118 121 127 132 135 134 131 130 130 129 130 131 132 129 130 133 133 134 130 126 119 112 108 109
69 73 80 83 85 88 87 87 91 95 98 102 107 109 109 111 115 116 116 114 114 118 127 130 130 129 132 133 132 135 139 136 133 136 144 140 129 130 132 126 116 107 108
70 75 80 82 88 90 86 87 90 95 97 98 103 107 110 106 104 106 108 107 109 115 120 125 128 130 132 132 134 136 137 136 137 136 135 131 132 134 133 129 126 117 115
69 74 79 84 89 88 84 88 90 93 96 98 102 104 104 105 104 103 105 105 107 111 119 124 126 132 135 135 137 136 136 137 141 137 135 138 142 141 137 140 136 128 126
69 73 79 84 87 86 86 90 90 91 96 96 100 100 101 104 105 106 106 106 108 111 114 119 123 132 136 137 138 137 139 141 147 142 143 150 149 150 147 157 162 152 145
69 73 77 82 84 85 88 89 89 90 95 95 97 100 103 104 105 106 105 108 111 112 113 114 116 121 128 133 138 142 139 141 145 143 144 150 152 160 163 171 185 211 235
69 73 78 76 78 83 86 87 88 88 91 92 91 94 99 102 102 100 100 103 110 113 113 114 118 121 126 134 136 147 148 154 161 154 149 168 195 201 207 221 233 244 256
72 74 77 78 77 79 83 86 87 86 88 89 91 89 91 93 93 93 94 97 101 104 106 111 114 116 123 138 146 157 163 173 190 200 213 230 239 244 254 257 264 264 264
75 77 78 78 76 79 82 84 84 88 88 87 89 91 90 91 91 90 92 89 84 85 92 109 108 97 107 130 148 164 171 189 218 243 257 256 258 264 265 266 270 265 262
73 74 77 76 76 76 80 83 84 86 83 84 84 84 87 88 87 85 89 84 83 77 70 70 83 87 90 196 232 239 235 257 271 273 268 267 270 271 266 267 269 265 266
70 70 72 74 76 75 74 77 79 79 77 80 77 78 78 79 84 84 85 79 76 69 58 50 50 44 282 289 290 283 284 280 277 276 275 273 276 280 274 270 269 267 270
66 66 67 70 71 69 69 72 73 74 74 71 68 67 69 76 80 78 78 74 64 48 35 21 356 337 311 301 294 295 291 294 289 285 283 280 282 284 277 273 274 272 272
61 62 63 65 66 64 62 64 70 72 72 69 65 61 66 73 77 69 67 58 41 23 5 342 331 317 306 298 291 289 290 295 294 290 292 291 290 289 280 275 280 276 275
60 60 60 62 63 62 59 60 62 64 63 64 61 57 58 65 67 64 60 49 20 6 349 335 321 315 308 301 291 290 289 291 289 288 290 291 288 287 284 281 279 279 279
59 60 61 61 64 61 56 55 57 56 55 59 57 56 51 52 55 53 38 17 0 345 339 335 322 314 308 304 299 296 294 287 284 284 286 287 289 286 289 283 279 282 280
56 58 60 61 61 60 54 52 52 53 55 54 57 61 54 39 34 28 9 356 352 344 333 328 324 311 306 304 301 295 293 293 292 292 290 289 291 289 287 283 282 280 277
53 56 57 59 58 57 54 53 53 52 51 53 55 54 49 33 28 17 358 349 347 344 339 331 331 322 311 301 299 298 293 295 293 291 290 293 297 293 290 288 284 281 281
49 50 50 48 46 49 51 50 48 47 46 45 46 42 35 28 18 12 1 353 350 342 334 325 325 327 316 306 303 304 299 296 294 292 292 296 300 301 299 297 296 295 293
46 48 46 40 40 43 47 46 44 43 40 37 34 33 31 29 21 7 355 349 346 340 334 330 324 324 328 318 310 307 305 303 304 305 300 299 300 299 299 299 298 297 298
42 44 42 39 39 40 40 41 39 36 34 32 28 23 20 15 8 360 350 337 331 328 327 328 325 324 325 326 322 316 310 307 305 303 305 307 306 305 304 300 297 296 296
Height
5874 5872 5872 5872 5871 5871 5870 5870 5870 5870 5871 5870 5871 5871 5871 5871 5871 5872 5872 5872 5873 5873 5873 5872 5873 5874 5876 5878 5879 5881 5882 5883 5884 5885 5886 5886 5887 5887 5887 5887 5887 5887 5887
5875 5874 5874 5874 5873 5873 5872 5872 5872 5872 5872 5872 5872 5872 5872 5872 5873 5873 5874 5874 5874 5874 5875 5874 5874 5876 5877 5879 5880 5882 5883 5884 5885 5886 5887 5887 5888 5888 5888 5888 5888 5888 5888
5876 5876 5876 5876 5875 5875 5874 5874 5874 5874 5874 5874 5874 5874 5874 5874 5875 5875 5875 5875 5875 5876 5876 5876 5877 5878 5879 5880 5882 5883 5884 5885 5886 5887 5888 5888 5888 5888 5889 5889 5889 5889 5889
5878 5878 5877 5877 5877 5877 5876 5876 5876 5876 5876 5876 5876 5875 5875 5876 5876 5876 5877 5876 5876 5877 5878 5878 5879 5880 5881 5882 5883 5884 5885 5886 5887 5888 5888 5889 5889 5889 5890 5890 5890 5890 5890
5880 5880 5879 5879 5879 5878 5878 5878 5878 5878 5878 5877 5877 5877 5877 5878 5878 5878 5878 5878 5877 5878 5878 5879 5880 5881 5883 5884 5885 5886 5886 5887 5888 5889 5889 5890 5890 5890 5890 5891 5891 5891 5891
5882 5881 5881 5881 5880 5880 5880 5880 5880 5880 5880 5879 5879 5879 5880 5879 5879 5880 5879 5879 5879 5879 5879 5880 5882 5883 5884 5885 5886 5887 5887 5888 5889 5890 5890 5891 5891 5891 5891 5892 5892 5892 5892
5884 5883 5882 5882 5882 5882 5882 5882 5882 5882 5881 5881 5881 5882 5882 5881 5881 5881 5881 5880 5880 5880 5880 5882 5884 5885 5886 5887 5888 5888 5889 5889 5890 5890 5891 5892 5892 5892 5892 5892 5892 5893 5892
5885 5885 5885 5884 5884 5884 5884 5883 5883 5883 5883 5883 5883 5884 5884 5883 5883 5883 5883 5882 5881 5881 5882 5884 5885 5886 5887 5888 5889 5890 5890 5890 5891 5891 5892 5892 5892 5893 5893 5893 5893 5893 5893
5888 5887 5887 5886 5886 5886 5886 5885 5885 5885 5885 5885 5885 5885 5885 5886 5886 5886 5885 5885 5884 5883 5884 5885 5887 5888 5889 5890 5890 5891 5891 5891 5892 5892 5892 5893 5893 5893 5893 5893 5893 5893 5893
5890 5889 5889 5888 5888 5888 5888 5887 5888 5888 5888 5888 5887 5887 5888 5888 5888 5888 5888 5888 5887 5886 5887 5888 5889 5890 5890 5891 5891 5892 5892 5892 5892 5893 5893 5893 5893 5893 5893 5893 5893 5893 5893
5892 5891 5891 5891 5890 5890 5890 5889 5890 5890 5890 5890 5890 5890 5890 5890 5890 5890 5890 5890 5890 5890 5890 5890 5891 5891 5891 5892 5892 5893 5893 5893 5893 5893 5893 5893 5893 5894 5893 5893 5893 5893 5893
5894 5894 5893 5893 5892 5892 5892 5892 5892 5892 5892 5892 5893 5892 5892 5892 5892 5892 5892 5892 5892 5892 5892 5892 5893 5893 5893 5893 5893 5893 5894 5893 5893 5894 5894 5894 5894 5894 5894 5893 5893 5893 5892
5897 5896 5895 5895 5894 5894 5894 5894 5894 5894 5894 5894 5895 5894 5894 5894 5894 5894 5894 5894 5894 5894 5894 5894 5894 5894 5894 5894 5894 5894 5894 5894 5894 5894 5894 5894 5894 5894 5894 5893 5893 5892 5892
5899 5899 5898 5897 5897 5896 5896 5896 5896 5896 5896 5896 5896 5896 5896 5896 5896 5896 5896 5896 5896 5896 5895 5895 5896 5895 5895 5895 5895 5895 5895 5895 5894 5894 5894 5894 5894 5894 5893 5893 5892 5891 5891
5901 5900 5900 5899 5899 5899 5898 5898 5898 5898 5898 5898 5898 5897 5897 5897 5897 5897 5897 5897 5897 5897 5897 5896 5896 5896 5896 5896 5895 5895 5895 5895 5894 5894 5894 5894 5893 5893 5892 5892 5891 5891 5890
5903 5902 5902 5901 5901 5901 5900 5900 5900 5900 5900 5899 5899 5899 5899 5899 5898 5898 5898 5898 5898 5898 5897 5897 5897 5897 5896 5896 5896 5895 5895 5895 5894 5894 5893 5893 5892 5892 5891 5891 5890 5890 5889
5905 5904 5904 5903 5903 5902 5901 5902 5902 5902 5902 5901 5901 5900 5900 5900 5899 5899 5899 5899 5898 5898 5898 5897 5897 5896 5896 5896 5895 5895 5894 5894 5893 5893 5892 5892 5891 5890 5890 5889 5889 5888 5888
5907 5906 5905 5905 5904 5904 5904 5903 5903 5903 5903 5902 5902 5902 5901 5901 5900 5900 5900 5900 5899 5899 5898 5898 5897 5896 5896 5895 5895 5894 5894 5893 5892 5892 5891 5890 5889 5889 5888 5887 5887 5886 5885
5908 5907 5907 5906 5906 5905 5905 5904 5904 5904 5903 5903 5903 5903 5902 5901 5901 5900 5900 5900 5899 5898 5898 5897 5896 5896 5895 5895 5894 5893 5892 5892 5891 5890 5889 5889 5888 5887 5886 5885 5884 5883 5883
5910 5909 5908 5907 5907 5906 5905 5905 5905 5904 5904 5904 5903 5903 5902 5901 5901 5901 5900 5900 5899 5898 5898 5897 5896 5896 5895 5894 5893 5892 5891 5890 5890 5889 5888 5887 5886 5885 5884 5883 5882 5881 5879
5911 5910 5909 5908 5908 5907 5907 5906 5906 5905 5905 5904 5903 5903 5902 5901 5901 5901 5900 5900 5899 5898 5897 5896 5895 5895 5894 5893 5892 5891 5890 5889 5888 5887 5886 5885 5884 5882 5881 5880 5879 5878 5877
5913 5912 5911 5910 5909 5909 5908 5907 5906 5906 5905 5904 5903 5903 5902 5901 5901 5900 5900 5899 5898 5897 5897 5895 5895 5893 5892 5891 5891 5889 5888 5888 5886 5885 5884 5883 5881 5880 5879 5877 5876 5875 5874
5914 5913 5912 5911 5911 5910 5909 5908 5907 5906 5905 5905 5904 5903 5902 5901 5901 5900 5899 5898 5898 5897 5896 5894 5894 5892 5891 5890 5889 5888 5887 5886 5885 5883 5882 5881 5879 5878 5876 5874 5874 5872 5871
5916 5914 5913 5912 5912 5911 5910 5909 5908 5907 5906 5905 5904 5903 5902 5901 5900 5899 5899 5898 5897 5896 5895 5893 5892 5891 5889 5888 5887 5886 5885 5884 5883 5881 5880 5878 5877 5875 5874 5872 5871 5869 5868
5917 5916 5914 5913 5912 5912 5911 5910 5909 5908 5907 5906 5905 5904 5902 5901 5900 5899 5898 5897 5896 5895 5894 5892 5891 5889 5888 5886 5885 5884 5883 5882 5880 5879 5878 5876 5874 5873 5871 5870 5869 5867 5866
5918 5917 5915 5914 5913 5912 5912 5911 5909 5908 5907 5906 5905 5903 5902 5901 5900 5898 5897 5896 5895 5894 5892 5891 5889 5888 5886 5885 5884 5882 5881 5880 5879 5877 5875 5874 5872 5870 5868 5867 5866 5865 5863